,,Stat5,,Stat1,,Stat2,,Stat3,,Stat4,,Wind1,,Wind1,
time,status,PA1M_AVG,status,PR1M_SUM,status,RH1M_AVG,status,SR1M_AVG,status,TA1M_AVG,status,W1dAve1m,status,W1sAve1m,
2000-04-15, 00:00:00,VALID,916.675,VALID,0,VALID,93.1336,VALID,-0.101885,VALID,19.7847,VALID,243,VALID,0,
2000-04-15, 00:01:00,VALID,916.67,VALID,0,VALID,93.1603,VALID,-0.101885,VALID,19.7914,VALID,243,VALID,0,
2000-04-15, 00:02:00,VALID,916.641,VALID,0,VALID,92.3783,VALID,-0.101885,VALID,19.7979,VALID,243,VALID,0,
2000-04-15, 00:03:00,VALID,916.621,VALID,0,VALID,91.9815,VALID,-0.118866,VALID,19.7596,VALID,236,VALID,0,
2000-04-15, 00:04:00,VALID,916.609,VALID,0,VALID,92.2498,VALID,-0.101885,VALID,19.7263,VALID,140,VALID,0,
2000-04-15, 00:05:00,VALID,916.582,VALID,0,VALID,91.1906,VALID,-0.101885,VALID,19.6065,VALID,107,VALID,0,
2000-04-15, 00:06:00,VALID,916.607,VALID,0,VALID,92.5105,VALID,-0.0679233,VALID,19.5265,VALID,107,VALID,0,
2000-04-15, 00:07:00,VALID,916.619,VALID,0,VALID,93.4108,VALID,0,VALID,19.4704,VALID,107,VALID,0,
2000-04-15, 00:08:00,VALID,916.641,VALID,0,VALID,94.072,VALID,0.0169808,VALID,19.4602,VALID,259,VALID,0.33572,
2000-04-15, 00:09:00,VALID,916.635,VALID,0,VALID,94.3187,VALID,0.0339617,VALID,19.4503,VALID,260,VALID,0.235677,
2000-04-15, 00:10:00,VALID,916.631,VALID,0,VALID,94.4128,VALID,0.0339617,VALID,19.4371,VALID,239,VALID,0.205448,
2000-04-15, 00:11:00,VALID,916.607,VALID,0,VALID,95.0766,VALID,0.0339617,VALID,19.46,VALID,237,VALID,0,
2000-04-15, 00:12:00,VALID,916.579,VALID,0,VALID,94.657,VALID,-0.0169808,VALID,19.4701,VALID,237,VALID,0,
2000-04-15, 00:13:00,VALID,916.573,VALID,0,VALID,94.4828,VALID,0,VALID,19.4831,VALID,237,VALID,0,
2000-04-15, 00:14:00,VALID,916.55,VALID,0,VALID,91.6306,VALID,0.0169808,VALID,19.3951,VALID,215,VALID,0,
2000-04-15, 00:15:00,VALID,916.545,VALID,0,VALID,91.8353,VALID,0.0339617,VALID,19.2729,VALID,128,VALID,0.252262,
2000-04-15, 00:16:00,VALID,916.525,VALID,0,VALID,93.0916,VALID,0.0169808,VALID,19.1695,VALID,127,VALID,0.271326,
2000-04-15, 00:17:00,VALID,916.54,VALID,0,VALID,94.5705,VALID,0,VALID,19.1119,VALID,127,VALID,0.0413491,
2000-04-15, 00:18:00,VALID,916.541,VALID,0,VALID,95.2775,VALID,0,VALID,19.0927,VALID,127,VALID,0,
2000-04-15, 00:19:00,VALID,916.568,VALID,0,VALID,95.7366,VALID,0.0339617,VALID,19.0913,VALID,127,VALID,0,
2000-04-15, 00:20:00,VALID,916.568,VALID,0,VALID,95.4314,VALID,0.0169808,VALID,19.0955,VALID,126,VALID,0,
2000-04-15, 00:21:00,VALID,916.565,VALID,0,VALID,94.1216,VALID,-0.0339617,VALID,19.0087,VALID,121,VALID,0,
2000-04-15, 00:22:00,VALID,916.549,VALID,0,VALID,93.833,VALID,-0.101885,VALID,18.9357,VALID,121,VALID,0.00801282,
2000-04-15, 00:23:00,VALID,916.527,VALID,0,VALID,94.3136,VALID,-0.0849042,VALID,18.8907,VALID,124,VALID,0,
2000-04-15, 00:24:00,VALID,916.527,VALID,0,VALID,95.1211,VALID,-0.101885,VALID,18.8778,VALID,181,VALID,0,
2000-04-15, 00:25:00,VALID,916.512,VALID,0,VALID,96.0837,VALID,-0.101885,VALID,18.9038,VALID,187,VALID,0,
2000-04-15, 00:26:00,VALID,916.479,VALID,0,VALID,96.3469,VALID,-0.101885,VALID,18.9133,VALID,187,VALID,0,
2000-04-15, 00:27:00,VALID,916.457,VALID,0,VALID,96.7945,VALID,-0.101885,VALID,18.9486,VALID,185,VALID,0,
2000-04-15, 00:28:00,VALID,916.437,VALID,0,VALID,96.9408,VALID,-0.0849042,VALID,18.9806,VALID,172,VALID,0.205387,
2000-04-15, 00:29:00,VALID,916.423,VALID,0,VALID,96.6674,VALID,-0.101885,VALID,19.004,VALID,172,VALID,0,
2000-04-15, 00:30:00,VALID,916.403,VALID,0,VALID,96.2897,VALID,-0.101885,VALID,18.9975,VALID,174,VALID,0,
2000-04-15, 00:31:00,VALID,916.376,VALID,0,VALID,95.7111,VALID,-0.101885,VALID,18.968,VALID,175,VALID,0,
2000-04-15, 00:32:00,VALID,916.361,VALID,0,VALID,95.8497,VALID,-0.101885,VALID,18.9906,VALID,175,VALID,0,
2000-04-15, 00:33:00,VALID,916.35,VALID,0,VALID,96.7221,VALID,-0.101885,VALID,19.0907,VALID,175,VALID,0,
2000-04-15, 00:34:00,VALID,916.348,VALID,0,VALID,95.4822,VALID,-0.101885,VALID,19.0817,VALID,175,VALID,0,
2000-04-15, 00:35:00,VALID,916.317,VALID,0,VALID,94.7193,VALID,-0.101885,VALID,19.039,VALID,175,VALID,0,
2000-04-15, 00:36:00,VALID,916.295,VALID,0,VALID,94.9583,VALID,-0.0679233,VALID,19.009,VALID,175,VALID,0,
2000-04-15, 00:37:00,VALID,916.276,VALID,0,VALID,96.0977,VALID,0,VALID,19.0348,VALID,175,VALID,0,
2000-04-15, 00:38:00,VALID,916.277,VALID,0,VALID,96.6305,VALID,0,VALID,19.0572,VALID,175,VALID,0,
2000-04-15, 00:39:00,VALID,916.304,VALID,0,VALID,97.0527,VALID,0,VALID,19.0962,VALID,175,VALID,0,
2000-04-15, 00:40:00,VALID,916.328,VALID,0,VALID,97.4507,VALID,0,VALID,19.1506,VALID,175,VALID,0,
2000-04-15, 00:41:00,VALID,916.309,VALID,0,VALID,96.2783,VALID,0.0339617,VALID,19.1382,VALID,174,VALID,0,
2000-04-15, 00:42:00,VALID,916.294,VALID,0,VALID,94.5057,VALID,0.0169808,VALID,19.077,VALID,174,VALID,0,
2000-04-15, 00:43:00,VALID,916.286,VALID,0,VALID,94.9037,VALID,0.0169808,VALID,19.0247,VALID,154,VALID,0.0392795,
2000-04-15, 00:44:00,VALID,916.268,VALID,0,VALID,95.3818,VALID,0,VALID,18.9894,VALID,110,VALID,0.678602,
2000-04-15, 00:45:00,VALID,916.269,VALID,0,VALID,95.4594,VALID,0,VALID,18.9349,VALID,96,VALID,0.69963,
2000-04-15, 00:46:00,VALID,916.257,VALID,0,VALID,96.146,VALID,0,VALID,18.9218,VALID,93,VALID,0.871833,
2000-04-15, 00:47:00,VALID,916.245,VALID,0,VALID,96.8848,VALID,0,VALID,18.9479,VALID,91,VALID,0.598884,
2000-04-15, 00:48:00,VALID,916.241,VALID,0,VALID,97.1913,VALID,0.0169808,VALID,18.9737,VALID,90,VALID,0.472768,
2000-04-15, 00:49:00,VALID,916.238,VALID,0,VALID,97.0044,VALID,0.0169808,VALID,18.9573,VALID,105,VALID,0.356497,
2000-04-15, 00:50:00,VALID,916.231,VALID,0,VALID,96.8645,VALID,0,VALID,18.9769,VALID,136,VALID,0.253205,
2000-04-15, 00:51:00,VALID,916.228,VALID,0,VALID,96.7411,VALID,0,VALID,18.9732,VALID,179,VALID,0.260938,
2000-04-15, 00:52:00,VALID,916.22,VALID,0,VALID,97.0845,VALID,0,VALID,19.0023,VALID,216,VALID,0.396793,
2000-04-15, 00:53:00,VALID,916.213,VALID,0,VALID,97.6198,VALID,0,VALID,19.0766,VALID,218,VALID,0.442356,
2000-04-15, 00:54:00,VALID,916.198,VALID,0,VALID,97.6529,VALID,0,VALID,19.1262,VALID,218,VALID,0.33133,
2000-04-15, 00:55:00,VALID,916.179,VALID,0,VALID,97.4672,VALID,0,VALID,19.1287,VALID,218,VALID,0.0112179,
2000-04-15, 00:56:00,VALID,916.175,VALID,0,VALID,96.7195,VALID,0,VALID,19.09,VALID,218,VALID,0.0286458,
2000-04-15, 00:57:00,VALID,916.169,VALID,0,VALID,96.5173,VALID,0,VALID,19.0937,VALID,218,VALID,0,
2000-04-15, 00:58:00,VALID,916.136,VALID,0,VALID,96.099,VALID,-0.0169808,VALID,19.0805,VALID,218,VALID,0,
2000-04-15, 00:59:00,VALID,916.126,VALID,0,VALID,96.1651,VALID,0.0169808,VALID,19.0771,VALID,218,VALID,0.108507,
2000-04-15, 01:00:00,VALID,916.108,VALID,0,VALID,96.7729,VALID,0.0169808,VALID,19.1024,VALID,218,VALID,0.0983073,
2000-04-15, 01:01:00,VALID,916.101,VALID,0,VALID,97.1786,VALID,0,VALID,19.161,VALID,218,VALID,0,
2000-04-15, 01:02:00,VALID,916.103,VALID,0,VALID,97.3782,VALID,0,VALID,19.1866,VALID,218,VALID,0,
2000-04-15, 01:03:00,VALID,916.076,VALID,0,VALID,97.588,VALID,0.0169808,VALID,19.2284,VALID,218,VALID,0,
2000-04-15, 01:04:00,VALID,916.046,VALID,0,VALID,97.1824,VALID,0.0169808,VALID,19.2127,VALID,218,VALID,0,
2000-04-15, 01:05:00,VALID,916.018,VALID,0,VALID,95.364,VALID,0.0169808,VALID,19.0833,VALID,196,VALID,0,
2000-04-15, 01:06:00,VALID,916.012,VALID,0,VALID,95.5827,VALID,-0.0339617,VALID,19.0616,VALID,147,VALID,0.327919,
2000-04-15, 01:07:00,VALID,915.98,VALID,0,VALID,95.9426,VALID,-0.101885,VALID,19.03,VALID,142,VALID,0.0576436,
2000-04-15, 01:08:00,VALID,915.977,VALID,0,VALID,96.2312,VALID,-0.101885,VALID,19.0176,VALID,142,VALID,0.110709,
2000-04-15, 01:09:00,VALID,915.962,VALID,0,VALID,96.3546,VALID,-0.101885,VALID,19.0044,VALID,122,VALID,0.614062,
2000-04-15, 01:10:00,VALID,915.951,VALID,0,VALID,96.7793,VALID,-0.101885,VALID,19.0137,VALID,112,VALID,0.547492,
2000-04-15, 01:11:00,VALID,915.919,VALID,0,VALID,96.5377,VALID,-0.101885,VALID,18.9945,VALID,114,VALID,0.131373,
2000-04-15, 01:12:00,VALID,915.905,VALID,0,VALID,97.1048,VALID,-0.0849042,VALID,19.0303,VALID,130,VALID,0.0488281,
2000-04-15, 01:13:00,VALID,915.909,VALID,0,VALID,97.2625,VALID,-0.101885,VALID,19.069,VALID,136,VALID,0,
2000-04-15, 01:14:00,VALID,915.916,VALID,0,VALID,97.41,VALID,-0.101885,VALID,19.0981,VALID,136,VALID,0,
2000-04-15, 01:15:00,VALID,915.932,VALID,0,VALID,97.3591,VALID,-0.101885,VALID,19.1173,VALID,136,VALID,0,
2000-04-15, 01:16:00,VALID,915.939,VALID,0,VALID,97.3947,VALID,-0.101885,VALID,19.1433,VALID,136,VALID,0,
2000-04-15, 01:17:00,VALID,915.931,VALID,0,VALID,97.6211,VALID,-0.101885,VALID,19.1724,VALID,146,VALID,0,
2000-04-15, 01:18:00,VALID,915.92,VALID,0,VALID,97.8856,VALID,-0.101885,VALID,19.2338,VALID,162,VALID,0,
2000-04-15, 01:19:00,VALID,915.907,VALID,0,VALID,97.8093,VALID,-0.101885,VALID,19.2437,VALID,162,VALID,0,
2000-04-15, 01:20:00,VALID,915.865,VALID,0,VALID,97.7215,VALID,-0.101885,VALID,19.2268,VALID,162,VALID,0,
2000-04-15, 01:21:00,VALID,915.851,VALID,0,VALID,97.6185,VALID,-0.0679233,VALID,19.2296,VALID,162,VALID,0,
2000-04-15, 01:22:00,VALID,915.866,VALID,0,VALID,97.5639,VALID,0,VALID,19.2482,VALID,161,VALID,0,
2000-04-15, 01:23:00,VALID,915.871,VALID,0,VALID,97.4609,VALID,-0.0339617,VALID,19.2485,VALID,162,VALID,0,
2000-04-15, 01:24:00,VALID,915.871,VALID,0,VALID,97.2727,VALID,0,VALID,19.2418,VALID,161,VALID,0,
2000-04-15, 01:25:00,VALID,915.865,VALID,0,VALID,97.4431,VALID,0.0169808,VALID,19.2835,VALID,161,VALID,0,
2000-04-15, 01:26:00,VALID,915.844,VALID,0,VALID,97.4011,VALID,0.0169808,VALID,19.284,VALID,161,VALID,0,
2000-04-15, 01:27:00,VALID,915.843,VALID,0,VALID,97.5524,VALID,-0.0169808,VALID,19.287,VALID,159,VALID,0,
2000-04-15, 01:28:00,VALID,915.826,VALID,0,VALID,97.5969,VALID,0,VALID,19.2838,VALID,159,VALID,0,
2000-04-15, 01:29:00,VALID,915.82,VALID,0,VALID,97.5155,VALID,0,VALID,19.2907,VALID,159,VALID,0,
2000-04-15, 01:30:00,VALID,915.803,VALID,0,VALID,97.4481,VALID,-0.0169808,VALID,19.2805,VALID,150,VALID,0,
2000-04-15, 01:31:00,VALID,915.78,VALID,0,VALID,97.1226,VALID,0,VALID,19.2738,VALID,147,VALID,0,
2000-04-15, 01:32:00,VALID,915.759,VALID,0,VALID,96.6,VALID,0,VALID,19.2321,VALID,147,VALID,0,
2000-04-15, 01:33:00,VALID,915.732,VALID,0,VALID,96.8797,VALID,-0.0169808,VALID,19.2425,VALID,142,VALID,0,
2000-04-15, 01:34:00,VALID,915.704,VALID,0,VALID,97.293,VALID,-0.0339617,VALID,19.2584,VALID,138,VALID,0,
2000-04-15, 01:35:00,VALID,915.699,VALID,0,VALID,97.6414,VALID,0,VALID,19.2972,VALID,138,VALID,0,
2000-04-15, 01:36:00,VALID,915.705,VALID,0,VALID,97.6796,VALID,-0.0169808,VALID,19.3071,VALID,138,VALID,0,
2000-04-15, 01:37:00,VALID,915.674,VALID,0,VALID,97.2587,VALID,0,VALID,19.2649,VALID,138,VALID,0,
2000-04-15, 01:38:00,VALID,915.676,VALID,0,VALID,96.7284,VALID,0,VALID,19.2328,VALID,138,VALID,0,
2000-04-15, 01:39:00,VALID,915.68,VALID,0,VALID,96.6852,VALID,0,VALID,19.2264,VALID,138,VALID,0,
2000-04-15, 01:40:00,VALID,915.675,VALID,0,VALID,96.8454,VALID,0,VALID,19.2127,VALID,138,VALID,0,
2000-04-15, 01:41:00,VALID,915.678,VALID,0,VALID,97.0031,VALID,0,VALID,19.1995,VALID,138,VALID,0,
2000-04-15, 01:42:00,VALID,915.684,VALID,0,VALID,97.0883,VALID,0,VALID,19.2065,VALID,138,VALID,0,
2000-04-15, 01:43:00,VALID,915.669,VALID,0,VALID,96.8518,VALID,0,VALID,19.1839,VALID,137,VALID,0,
2000-04-15, 01:44:00,VALID,915.638,VALID,0,VALID,96.5606,VALID,0,VALID,19.1576,VALID,136,VALID,0,
2000-04-15, 01:45:00,VALID,915.632,VALID,0,VALID,96.9331,VALID,0,VALID,19.1774,VALID,136,VALID,0,
2000-04-15, 01:46:00,VALID,915.637,VALID,0,VALID,97.1862,VALID,0,VALID,19.1903,VALID,136,VALID,0,
2000-04-15, 01:47:00,VALID,915.647,VALID,0,VALID,97.5219,VALID,-0.0169808,VALID,19.2291,VALID,138,VALID,0,
2000-04-15, 01:48:00,VALID,915.627,VALID,0,VALID,97.864,VALID,0,VALID,19.3006,VALID,204,VALID,0,
2000-04-15, 01:49:00,VALID,915.605,VALID,0,VALID,97.986,VALID,0,VALID,19.3454,VALID,217,VALID,0,
2000-04-15, 01:50:00,VALID,915.597,VALID,0,VALID,98.0038,VALID,0,VALID,19.3807,VALID,221,VALID,0,
2000-04-15, 01:51:00,VALID,915.599,VALID,0,VALID,97.7254,VALID,0.0169808,VALID,19.3449,VALID,242,VALID,0.532335,
2000-04-15, 01:52:00,VALID,915.611,VALID,0,VALID,97.3528,VALID,0,VALID,19.3066,VALID,243,VALID,0.537373,
2000-04-15, 01:53:00,VALID,915.599,VALID,0,VALID,97.1226,VALID,0,VALID,19.2783,VALID,239,VALID,0.467516,
2000-04-15, 01:54:00,VALID,915.601,VALID,0,VALID,97.2205,VALID,0,VALID,19.2746,VALID,217,VALID,0.0310389,
2000-04-15, 01:55:00,VALID,915.592,VALID,0,VALID,97.0717,VALID,0.0169808,VALID,19.2485,VALID,211,VALID,0.03125,
2000-04-15, 01:56:00,VALID,915.601,VALID,0,VALID,96.9955,VALID,-0.0169808,VALID,19.2291,VALID,207,VALID,0,
2000-04-15, 01:57:00,VALID,915.588,VALID,0,VALID,96.8594,VALID,-0.0169808,VALID,19.1938,VALID,197,VALID,0,
2000-04-15, 01:58:00,VALID,915.587,VALID,0,VALID,97.0616,VALID,0,VALID,19.1871,VALID,109,VALID,0,
2000-04-15, 01:59:00,VALID,915.572,VALID,0,VALID,97.7559,VALID,-0.0169808,VALID,19.2999,VALID,65,VALID,0.248857,
2000-04-15, 02:00:00,VALID,915.543,VALID,0,VALID,97.691,VALID,-0.0169808,VALID,19.3041,VALID,91,VALID,0.497266,
2000-04-15, 02:01:00,VALID,915.511,VALID,0,VALID,97.4939,VALID,0,VALID,19.2716,VALID,90,VALID,0.519326,
2000-04-15, 02:02:00,VALID,915.487,VALID,0,VALID,97.6605,VALID,0,VALID,19.2875,VALID,87,VALID,0.331003,
2000-04-15, 02:03:00,VALID,915.483,VALID,0,VALID,97.6452,VALID,-0.0339617,VALID,19.2778,VALID,87,VALID,0.0210938,
2000-04-15, 02:04:00,VALID,915.49,VALID,0,VALID,97.8868,VALID,-0.0339617,VALID,19.3203,VALID,87,VALID,0,
2000-04-15, 02:05:00,VALID,915.492,VALID,0,VALID,97.7317,VALID,0,VALID,19.2843,VALID,87,VALID,0,
2000-04-15, 02:06:00,VALID,915.507,VALID,0,VALID,97.6363,VALID,-0.0509425,VALID,19.2646,VALID,87,VALID,0,
2000-04-15, 02:07:00,VALID,915.502,VALID,0,VALID,97.7559,VALID,-0.101885,VALID,19.2917,VALID,87,VALID,0,
2000-04-15, 02:08:00,VALID,915.499,VALID,0,VALID,97.8805,VALID,-0.101885,VALID,19.3212,VALID,87,VALID,0,
2000-04-15, 02:09:00,VALID,915.51,VALID,0,VALID,98.2327,VALID,-0.101885,VALID,19.3628,VALID,115,VALID,0,
2000-04-15, 02:10:00,VALID,915.502,VALID,0,VALID,98.412,VALID,-0.118866,VALID,19.4542,VALID,213,VALID,0,
2000-04-15, 02:11:00,VALID,915.475,VALID,0,VALID,98.2505,VALID,-0.0849042,VALID,19.45,VALID,213,VALID,0,
2000-04-15, 02:12:00,VALID,915.474,VALID,0,VALID,97.9352,VALID,-0.0849042,VALID,19.3856,VALID,217,VALID,0.0956503,
2000-04-15, 02:13:00,VALID,915.497,VALID,0,VALID,97.3947,VALID,-0.101885,VALID,19.2917,VALID,217,VALID,0.120226,
2000-04-15, 02:14:00,VALID,915.505,VALID,0,VALID,96.7844,VALID,-0.101885,VALID,19.2015,VALID,176,VALID,0,
2000-04-15, 02:15:00,VALID,915.489,VALID,0,VALID,95.9057,VALID,-0.0849042,VALID,19.0693,VALID,110,VALID,0.217928,
2000-04-15, 02:16:00,VALID,915.473,VALID,0,VALID,95.9693,VALID,-0.0849042,VALID,18.9751,VALID,109,VALID,0.788261,
2000-04-15, 02:17:00,VALID,915.474,VALID,0,VALID,96.5504,VALID,-0.0849042,VALID,18.9394,VALID,106,VALID,0.00641026,
2000-04-15, 02:18:00,VALID,915.482,VALID,0,VALID,97.0616,VALID,-0.101885,VALID,18.9269,VALID,113,VALID,0,
2000-04-15, 02:19:00,VALID,915.477,VALID,0,VALID,97.7126,VALID,-0.101885,VALID,18.9659,VALID,194,VALID,0.339844,
2000-04-15, 02:20:00,VALID,915.487,VALID,0,VALID,97.7266,VALID,-0.118866,VALID,18.9627,VALID,249,VALID,0.659455,
2000-04-15, 02:21:00,VALID,915.488,VALID,0,VALID,98.1424,VALID,-0.0339617,VALID,18.988,VALID,232,VALID,0.508814,
2000-04-15, 02:22:00,VALID,915.454,VALID,0,VALID,98.1501,VALID,0.101885,VALID,19.0085,VALID,176,VALID,0.516774,
2000-04-15, 02:23:00,VALID,915.388,VALID,0,VALID,97.9453,VALID,0.101885,VALID,18.9631,VALID,117,VALID,1.35465,
2000-04-15, 02:24:00,VALID,915.329,VALID,0,VALID,97.8487,VALID,0.101885,VALID,18.9111,VALID,124,VALID,1.3163,
2000-04-15, 02:25:00,VALID,915.3,VALID,0,VALID,98.3319,VALID,0.101885,VALID,19.0314,VALID,200,VALID,0.621528,
2000-04-15, 02:26:00,VALID,915.318,VALID,0,VALID,97.9288,VALID,0.101885,VALID,18.9206,VALID,261,VALID,0.654731,
2000-04-15, 02:27:00,VALID,915.34,VALID,0,VALID,98.1361,VALID,0.101885,VALID,18.9566,VALID,263,VALID,0.646793,
2000-04-15, 02:28:00,VALID,915.374,VALID,0,VALID,98.4006,VALID,0.0849042,VALID,19.0175,VALID,247,VALID,0.668919,
2000-04-15, 02:29:00,VALID,915.384,VALID,0,VALID,98.4794,VALID,0.101885,VALID,19.0505,VALID,230,VALID,1.1279,
2000-04-15, 02:30:00,VALID,915.369,VALID,0,VALID,98.3688,VALID,0.0849042,VALID,19.0373,VALID,215,VALID,0.954241,
2000-04-15, 02:31:00,VALID,915.345,VALID,0,VALID,98.2912,VALID,0.0849042,VALID,19.008,VALID,212,VALID,0.763363,
2000-04-15, 02:32:00,VALID,915.334,VALID,0,VALID,98.2607,VALID,0.0849042,VALID,18.9889,VALID,200,VALID,0.603165,
2000-04-15, 02:33:00,VALID,915.323,VALID,0,VALID,98.454,VALID,0.101885,VALID,19.009,VALID,159,VALID,0.825781,
2000-04-15, 02:34:00,VALID,915.281,VALID,0,VALID,98.0547,VALID,0.118866,VALID,18.9146,VALID,119,VALID,1.10691,
2000-04-15, 02:35:00,VALID,915.257,VALID,0,VALID,98.4489,VALID,0.101885,VALID,18.9794,VALID,115,VALID,0.96875,
2000-04-15, 02:36:00,VALID,915.242,VALID,0,VALID,98.5989,VALID,0.0339617,VALID,19.0321,VALID,111,VALID,0.71274,
2000-04-15, 02:37:00,VALID,915.217,VALID,0,VALID,98.4731,VALID,-0.101885,VALID,18.9987,VALID,105,VALID,0.85016,
2000-04-15, 02:38:00,VALID,915.222,VALID,0,VALID,98.3866,VALID,-0.101885,VALID,18.9498,VALID,98,VALID,1.13321,
2000-04-15, 02:39:00,VALID,915.231,VALID,0,VALID,98.4476,VALID,-0.0679233,VALID,18.9756,VALID,113,VALID,0.71942,
2000-04-15, 02:40:00,VALID,915.276,VALID,0,VALID,98.1958,VALID,-0.0849042,VALID,18.9207,VALID,216,VALID,0.718945,
2000-04-15, 02:41:00,VALID,915.3,VALID,0,VALID,98.2289,VALID,-0.101885,VALID,18.8946,VALID,241,VALID,1.08442,
2000-04-15, 02:42:00,VALID,915.307,VALID,0,VALID,98.4476,VALID,-0.0849042,VALID,18.9371,VALID,236,VALID,0.649957,
2000-04-15, 02:43:00,VALID,915.279,VALID,0,VALID,98.5659,VALID,-0.0849042,VALID,18.9595,VALID,225,VALID,0.358953,
2000-04-15, 02:44:00,VALID,915.233,VALID,0,VALID,98.6549,VALID,-0.101885,VALID,19.0047,VALID,200,VALID,0.17722,
2000-04-15, 02:45:00,VALID,915.191,VALID,0,VALID,98.4832,VALID,-0.101885,VALID,18.9565,VALID,171,VALID,0,
2000-04-15, 02:46:00,VALID,915.188,VALID,0,VALID,98.6206,VALID,-0.101885,VALID,18.992,VALID,208,VALID,0,
2000-04-15, 02:47:00,VALID,915.234,VALID,0,VALID,98.4832,VALID,-0.101885,VALID,18.9465,VALID,224,VALID,0.688839,
2000-04-15, 02:48:00,VALID,915.293,VALID,0,VALID,98.6117,VALID,-0.101885,VALID,18.9726,VALID,221,VALID,0.91509,
2000-04-15, 02:49:00,VALID,915.305,VALID,0,VALID,98.6244,VALID,-0.135847,VALID,18.9858,VALID,205,VALID,0.579814,
2000-04-15, 02:50:00,VALID,915.297,VALID,0,VALID,98.3777,VALID,-0.101885,VALID,18.9406,VALID,175,VALID,0.789634,
2000-04-15, 02:51:00,VALID,915.302,VALID,0,VALID,98.66,VALID,-0.101885,VALID,18.9627,VALID,179,VALID,0.826172,
2000-04-15, 02:52:00,VALID,915.282,VALID,0,VALID,98.4832,VALID,0,VALID,18.9491,VALID,166,VALID,0.875617,
2000-04-15, 02:53:00,VALID,915.259,VALID,0,VALID,98.6892,VALID,-0.0169808,VALID,18.958,VALID,161,VALID,1.09971,
2000-04-15, 02:54:00,VALID,915.234,VALID,0,VALID,98.6956,VALID,-0.0339617,VALID,18.9933,VALID,159,VALID,1.33711,
2000-04-15, 02:55:00,VALID,915.209,VALID,0,VALID,98.8227,VALID,0,VALID,19.0259,VALID,167,VALID,1.19631,
2000-04-15, 02:56:00,VALID,915.189,VALID,0,VALID,98.8139,VALID,0,VALID,19.0549,VALID,175,VALID,0.953348,
2000-04-15, 02:57:00,VALID,915.193,VALID,0,VALID,98.899,VALID,0,VALID,19.123,VALID,186,VALID,0.572461,
2000-04-15, 02:58:00,VALID,915.193,VALID,0,VALID,98.8151,VALID,0,VALID,19.1456,VALID,187,VALID,0.32053,
2000-04-15, 02:59:00,VALID,915.185,VALID,0,VALID,98.6752,VALID,-0.0169808,VALID,19.1359,VALID,202,VALID,0.267578,
2000-04-15, 03:00:00,VALID,915.171,VALID,0,VALID,98.7541,VALID,-0.0339617,VALID,19.1585,VALID,222,VALID,0.277043,
2000-04-15, 03:01:00,VALID,915.149,VALID,0,VALID,98.5583,VALID,0,VALID,19.1585,VALID,196,VALID,0.460321,
2000-04-15, 03:02:00,VALID,915.135,VALID,0,VALID,98.3535,VALID,-0.0169808,VALID,19.1198,VALID,187,VALID,0.523438,
2000-04-15, 03:03:00,VALID,915.122,VALID,0,VALID,98.4959,VALID,-0.0169808,VALID,19.1359,VALID,184,VALID,0.705448,
2000-04-15, 03:04:00,VALID,915.099,VALID,0,VALID,98.8355,VALID,-0.0339617,VALID,19.21,VALID,179,VALID,0.800564,
2000-04-15, 03:05:00,VALID,915.092,VALID,0,VALID,98.9054,VALID,-0.0169808,VALID,19.3401,VALID,160,VALID,0.589738,
2000-04-15, 03:06:00,VALID,915.097,VALID,0,VALID,98.7668,VALID,0,VALID,19.3747,VALID,157,VALID,0.115954,
2000-04-15, 03:07:00,VALID,915.108,VALID,0,VALID,98.4845,VALID,0.0849042,VALID,19.3924,VALID,157,VALID,0.0633013,
2000-04-15, 03:08:00,VALID,915.109,VALID,0,VALID,97.6732,VALID,0.0679233,VALID,19.3116,VALID,157,VALID,0.46855,
2000-04-15, 03:09:00,VALID,915.088,VALID,0,VALID,97.3362,VALID,0.0509425,VALID,19.2987,VALID,157,VALID,0.228252,
2000-04-15, 03:10:00,VALID,915.108,VALID,0,VALID,97.6999,VALID,0.0339617,VALID,19.325,VALID,163,VALID,0,
2000-04-15, 03:11:00,VALID,915.132,VALID,0,VALID,97.9288,VALID,0.0849042,VALID,19.3698,VALID,165,VALID,0,
2000-04-15, 03:12:00,VALID,915.111,VALID,0,VALID,97.6847,VALID,0.101885,VALID,19.3601,VALID,173,VALID,0,
2000-04-15, 03:13:00,VALID,915.103,VALID,0,VALID,97.7317,VALID,0.0509425,VALID,19.3799,VALID,174,VALID,0,
2000-04-15, 03:14:00,VALID,915.125,VALID,0,VALID,97.0463,VALID,0.0849042,VALID,19.3121,VALID,128,VALID,0,
2000-04-15, 03:15:00,VALID,915.12,VALID,0,VALID,95.9451,VALID,0.0849042,VALID,19.1889,VALID,97,VALID,0.677576,
2000-04-15, 03:16:00,VALID,915.107,VALID,0,VALID,96.6686,VALID,0.0849042,VALID,19.179,VALID,102,VALID,0.749783,
2000-04-15, 03:17:00,VALID,915.127,VALID,0,VALID,96.4283,VALID,0.101885,VALID,19.1305,VALID,105,VALID,0.399523,
2000-04-15, 03:18:00,VALID,915.145,VALID,0,VALID,96.7488,VALID,0.101885,VALID,19.1044,VALID,105,VALID,0.157895,
2000-04-15, 03:19:00,VALID,915.148,VALID,0,VALID,97.3248,VALID,0.0849042,VALID,19.134,VALID,127,VALID,0,
2000-04-15, 03:20:00,VALID,915.155,VALID,0,VALID,97.663,VALID,0.101885,VALID,19.1792,VALID,145,VALID,0.318304,
2000-04-15, 03:21:00,VALID,915.165,VALID,0,VALID,97.4888,VALID,0.0849042,VALID,19.1568,VALID,143,VALID,0.626562,
2000-04-15, 03:22:00,VALID,915.179,VALID,0,VALID,96.8645,VALID,0,VALID,19.0805,VALID,115,VALID,0.727385,
2000-04-15, 03:23:00,VALID,915.197,VALID,0,VALID,96.3419,VALID,0,VALID,18.9968,VALID,91,VALID,1.22556,
2000-04-15, 03:24:00,VALID,915.206,VALID,0,VALID,96.6038,VALID,0,VALID,18.9446,VALID,76,VALID,0.908984,
2000-04-15, 03:25:00,VALID,915.207,VALID,0,VALID,97.2421,VALID,-0.0169808,VALID,19.0358,VALID,67,VALID,0.567845,
2000-04-15, 03:26:00,VALID,915.174,VALID,0,VALID,96.5898,VALID,0,VALID,19.0544,VALID,113,VALID,0.529772,
2000-04-15, 03:27:00,VALID,915.15,VALID,0,VALID,96.2338,VALID,-0.0339617,VALID,19.045,VALID,113,VALID,0.203526,
2000-04-15, 03:28:00,VALID,915.148,VALID,0,VALID,96.6445,VALID,-0.0169808,VALID,19.0544,VALID,113,VALID,0.225361,
2000-04-15, 03:29:00,VALID,915.143,VALID,0,VALID,97.176,VALID,-0.0339617,VALID,19.1135,VALID,108,VALID,0.146234,
2000-04-15, 03:30:00,VALID,915.142,VALID,0,VALID,97.3439,VALID,-0.0169808,VALID,19.1195,VALID,106,VALID,0,
2000-04-15, 03:31:00,VALID,915.134,VALID,0,VALID,97.3172,VALID,-0.0169808,VALID,19.1354,VALID,106,VALID,0.00117188,
2000-04-15, 03:32:00,VALID,915.106,VALID,0,VALID,97.1976,VALID,-0.0169808,VALID,19.1449,VALID,106,VALID,0.0364583,
2000-04-15, 03:33:00,VALID,915.085,VALID,0,VALID,97.2193,VALID,0,VALID,19.1772,VALID,106,VALID,0.158637,
2000-04-15, 03:34:00,VALID,915.084,VALID,0,VALID,96.7233,VALID,0,VALID,19.1483,VALID,107,VALID,0.0128801,
2000-04-15, 03:35:00,VALID,915.085,VALID,0,VALID,96.2439,VALID,0,VALID,19.0964,VALID,114,VALID,0.078125,
2000-04-15, 03:36:00,VALID,915.09,VALID,0,VALID,96.4372,VALID,0,VALID,19.0937,VALID,114,VALID,0,
2000-04-15, 03:37:00,VALID,915.097,VALID,0,VALID,96.7704,VALID,0.0169808,VALID,19.1257,VALID,114,VALID,0,
2000-04-15, 03:38:00,VALID,915.072,VALID,0,VALID,96.7869,VALID,0,VALID,19.1449,VALID,99,VALID,0.0386161,
2000-04-15, 03:39:00,VALID,915.081,VALID,0,VALID,96.5428,VALID,0,VALID,19.1707,VALID,72,VALID,0.347862,